sat.trackr.live / text

‹ back to catalog

STARLINK-3974

NORAD 52634 · 2022-052AN

PAYLOAD ACTIVE UNKNOWN

§ Identity

Operator
Country
US
Launch date
2022-05-14
Launch site
AFETR
Launch vehicle
Mass (kg)
RCS (m²)

Purposes: comms

External: N2YO · Heavens-Above · Gunter

§ Orbital elements

Epoch: 2026-05-25T02:04:53.934240Z

Period
95.44 min
Inclination
53.2142°
Eccentricity
0.0001263
Mean motion
15.08834548 rev/d
Perigee alt
538.9 km
Apogee alt
540.6 km
Semi-major
6,917.9 km
B*
5.9240e-5
RAAN
286.1883°
Arg perigee
90.1346°
Mean anomaly
269.9791°
Rev number
22,252

§ Raw data

STARLINK-39741 52634U 22052AN  26145.08673535  .00000655  00000+0  59240-4 0  99952 52634  53.2142 286.1883 0001263  90.1346 269.9791 15.08834548222522

JSON: /api/v1/satellites/52634 · /tle

For live sub-satellite position, see the globe view (requires WebGL).

§ Visibility from observer

Set your observer location to see the next 7 days of passes ≥ 10°. The values pass through the URL so the page stays shareable.

No JS? Fill the form by hand. The geolocation button needs JavaScript.